Theta_e
313 312 313 313 314 316 319 322 325 326 327 327 327 327 327 327 327 327 327 327 327 328 328 329 329 329 329 329 328 328 327 327 327 326 326 326 326 325 325 325 325 325 325 325 325 325 324 324 324 323 323 323 322 322 322 322 322 322 322 322 322 322 322 322 321 321 319 319 319 320 319 319 319 318 317 315 314 313 313 312 310 308 307 306 305
313 312 312 313 313 314 316 319 322 324 326 327 327 327 327 327 327 327 327 327 327 327 328 328 328 328 328 329 329 328 328 327 327 326 326 326 325 325 325 325 325 325 324 324 324 324 324 323 323 323 323 323 322 322 322 322 322 321 322 322 321 321 322 322 321 320 319 317 317 318 318 317 317 316 314 313 312 312 312 312 311 310 308 306 306
313 312 312 312 313 314 315 317 320 323 325 326 327 327 327 327 327 327 327 327 327 327 328 328 328 328 328 328 328 328 328 327 327 326 326 325 325 325 325 325 325 324 324 324 323 323 323 323 323 323 322 322 322 322 322 322 322 322 321 321 321 321 321 321 321 319 318 317 317 318 318 316 314 313 312 311 310 310 310 311 311 310 309 307 306
313 313 312 312 312 314 315 316 318 321 323 325 326 327 327 327 327 327 327 327 327 327 327 328 328 328 328 328 328 328 327 327 327 326 326 326 325 325 325 325 325 324 324 323 323 323 322 322 322 322 322 322 321 321 321 321 321 321 321 321 321 321 321 321 320 320 319 317 316 317 317 315 312 311 310 309 308 309 309 309 309 309 309 307 306
313 313 312 311 311 312 313 315 317 318 320 322 323 325 326 326 327 327 327 327 327 327 327 327 327 327 328 328 328 328 327 327 327 326 326 326 325 325 325 325 324 324 324 323 323 323 322 322 322 322 321 321 321 321 320 321 321 320 320 320 320 320 320 320 320 320 319 317 315 314 313 312 310 309 309 308 307 307 306 306 307 308 307 305 304
314 313 312 311 311 311 311 312 314 315 317 318 320 322 324 325 326 326 326 327 327 326 326 326 327 327 327 327 327 327 327 327 326 326 326 325 325 325 325 325 325 324 324 323 323 322 322 322 322 321 321 320 320 320 320 320 320 320 319 320 320 320 319 319 319 318 317 316 315 312 310 308 307 307 307 306 305 304 304 303 304 304 303 303 303
313 312 311 311 311 311 310 310 311 313 314 315 316 319 321 323 324 325 326 326 326 326 326 326 326 326 326 327 327 327 327 327 326 326 325 325 325 325 325 325 325 324 324 323 323 323 322 322 322 321 321 321 320 320 319 319 319 319 319 319 319 319 318 318 318 317 316 315 314 311 308 306 305 304 304 302 301 301 301 299 299 302 302 302 303
313 312 311 310 311 311 311 310 310 311 312 314 315 316 319 321 323 324 325 326 326 326 325 325 325 326 326 326 326 326 327 326 326 326 325 325 325 325 325 325 324 324 324 323 323 323 322 322 322 322 321 321 321 320 320 319 319 319 319 319 319 318 317 317 316 315 314 312 310 309 307 304 302 301 299 298 297 298 299 298 298 302 302 302 302
313 312 311 310 311 311 310 310 309 309 310 312 313 314 316 318 320 322 323 324 324 325 325 325 325 325 325 325 326 326 326 326 326 326 325 325 325 324 324 324 324 324 323 323 323 323 323 322 322 322 322 321 321 321 321 320 320 319 319 319 318 317 317 315 314 312 311 308 307 306 303 301 299 297 296 297 298 299 300 298 299 301 300 298 299
312 311 310 310 311 310 310 309 309 308 309 309 310 311 313 315 317 320 321 322 323 324 324 324 325 324 324 324 324 325 325 325 325 325 325 325 324 324 324 324 324 324 323 323 323 323 323 322 322 322 322 322 322 322 321 321 320 320 320 319 319 318 316 313 311 310 308 305 305 304 301 299 298 298 299 301 301 300 300 299 298 298 296 295 296
311 310 309 310 310 310 310 310 309 308 308 308 308 309 310 311 312 314 316 318 320 322 323 323 324 324 323 323 323 323 323 323 323 324 324 324 324 324 324 324 324 323 323 323 322 322 322 322 322 322 322 321 321 321 322 321 321 321 321 320 320 320 318 313 310 309 307 305 305 304 302 300 301 301 302 301 301 300 300 299 297 295 294 294 295
310 309 309 309 309 309 309 309 308 308 308 308 308 308 308 308 308 309 310 311 314 317 320 321 322 322 322 322 322 321 321 321 322 323 323 324 324 324 324 323 323 323 323 322 322 322 322 321 322 322 321 321 321 321 321 321 321 321 321 321 320 320 319 317 314 311 309 307 305 303 303 304 303 302 302 302 302 301 299 297 296 295 294 294 294
308 308 308 308 308 308 308 307 307 307 307 307 307 307 307 307 307 307 308 308 308 310 311 313 315 317 318 318 319 319 320 320 320 321 322 322 323 323 323 323 323 323 322 322 322 322 322 321 321 321 321 321 321 321 321 321 320 321 321 320 318 317 317 317 316 315 313 311 307 305 306 307 304 305 307 307 304 300 296 295 295 295 295 295 296
306 306 307 307 307 307 307 307 306 306 306 307 306 306 306 306 306 306 306 306 306 306 306 307 308 310 311 313 314 315 316 317 318 318 319 320 321 322 323 323 322 322 322 322 322 322 321 321 321 321 321 320 320 320 321 321 320 320 320 318 316 316 315 315 314 314 313 313 310 310 311 311 309 310 311 308 305 302 299 296 296 296 296 296 297
304 305 305 306 306 306 306 306 306 306 306 306 306 306 306 305 305 305 305 304 304 304 304 304 305 305 306 308 309 310 311 312 314 315 316 318 319 320 321 321 322 321 321 321 321 321 321 321 321 321 320 320 321 321 320 320 320 319 317 316 315 314 314 314 313 313 313 313 311 312 313 313 312 311 310 308 306 305 303 302 301 299 297 295 293
304 304 304 305 305 305 305 305 305 305 305 305 305 305 305 305 305 304 304 304 303 303 303 303 303 303 303 304 305 306 307 308 309 311 313 314 316 317 319 320 320 320 320 320 320 320 320 320 320 320 320 320 321 321 321 320 318 316 315 314 313 312 312 313 312 312 313 312 310 311 311 310 310 308 307 305 303 301 301 300 299 297 294 291 290
303 303 302 302 302 302 303 303 303 304 304 304 304 304 304 304 304 304 303 303 303 303 303 302 302 301 301 302 303 304 304 305 306 307 309 311 313 315 316 317 318 317 318 318 319 319 319 319 319 319 319 319 320 320 321 319 316 314 312 311 309 308 309 310 308 309 310 309 308 308 308 307 306 305 303 301 300 299 298 296 295 293 292 290 290
301 301 300 300 300 300 300 301 301 302 303 303 303 303 303 303 303 303 302 302 302 302 302 302 302 301 300 300 301 302 303 303 304 305 306 308 310 312 314 315 315 315 315 316 317 317 317 318 318 318 318 319 319 319 320 317 314 311 311 309 306 305 305 305 304 304 305 304 304 303 302 302 302 301 299 298 297 297 298 297 296 293 291 290 289
300 299 298 298 299 299 299 299 299 299 300 300 301 301 302 302 302 302 302 302 301 301 301 301 300 300 300 299 300 300 301 301 302 303 304 306 307 309 311 312 312 312 313 313 314 314 315 315 316 316 317 318 318 317 318 317 314 312 311 308 304 303 304 304 303 304 304 302 301 300 299 299 299 298 298 297 296 297 298 299 298 294 292 290 289
298 297 297 297 298 299 299 298 298 298 298 298 298 298 299 300 301 301 301 301 301 300 300 300 300 299 299 299 299 300 300 301 301 302 303 304 305 308 309 310 310 310 310 311 311 311 312 313 314 315 315 316 316 316 317 317 315 313 312 309 306 306 307 307 306 305 304 302 300 298 297 297 297 297 297 297 296 294 294 294 294 294 293 290 288
296 295 296 296 297 298 299 298 298 298 298 298 298 298 297 298 299 300 300 300 300 300 299 299 299 298 298 298 299 299 300 300 301 301 302 303 304 306 308 309 309 309 309 309 309 310 310 311 312 313 314 314 314 314 314 315 314 312 311 311 312 312 312 310 306 303 301 299 297 295 295 295 296 296 295 294 292 290 289 289 289 290 290 289 288
294 294 295 295 296 297 298 298 299 299 299 298 298 298 298 297 297 298 298 299 299 298 298 298 297 297 297 297 298 298 299 300 300 301 301 303 304 305 307 307 308 307 307 308 308 309 309 310 311 312 313 314 313 312 312 312 311 309 309 310 311 310 309 307 303 299 297 295 294 293 292 292 292 291 290 289 287 287 287 288 288 288 288 287 288
293 293 294 295 296 296 297 297 298 298 299 298 297 298 298 298 297 297 297 297 297 296 296 296 296 296 297 297 297 298 298 299 300 300 301 302 304 305 306 307 307 307 306 307 307 308 309 309 310 311 312 313 313 312 312 310 308 307 307 307 306 306 305 303 299 296 294 293 292 291 290 290 289 288 287 286 286 286 286 287 287 287 287 287 287
293 293 293 294 295 296 296 297 297 297 297 297 297 297 297 297 297 297 296 296 295 295 295 295 295 296 296 297 297 298 298 299 299 300 301 302 303 304 306 307 307 307 306 306 306 307 309 310 311 312 312 313 313 313 312 309 308 308 308 306 304 304 303 301 297 294 292 291 290 290 289 289 288 287 286 286 286 285 285 286 286 286 286 286 286
292 292 292 292 293 294 296 296 296 296 296 296 296 296 296 296 296 296 296 296 295 295 295 295 295 296 296 296 297 297 298 299 299 300 300 301 302 303 304 306 307 306 305 305 306 307 307 308 310 311 312 311 310 309 307 306 305 305 304 303 302 301 301 299 296 293 291 290 290 290 289 288 288 287 287 286 285 285 285 284 284 284 284 284 284
291 291 291 291 291 292 293 294 295 295 295 295 295 295 296 296 296 296 296 295 295 295 295 295 295 295 296 296 297 297 298 298 299 299 299 300 300 301 301 303 304 304 303 303 304 304 305 306 306 307 308 308 306 303 302 301 301 300 299 299 299 299 299 297 295 293 292 291 290 290 288 287 287 287 287 286 285 284 284 284 283 283 284 284 283
291 290 290 291 291 291 291 292 293 293 293 294 294 295 295 295 295 295 295 295 295 295 295 295 295 295 295 296 296 297 297 297 298 298 298 298 299 299 299 300 301 302 302 301 301 302 303 303 303 304 304 304 302 300 299 299 298 297 296 297 297 297 298 297 295 294 293 292 290 289 288 287 287 286 286 285 284 284 284 284 283 283 283 283 282
290 290 290 290 290 290 291 291 291 291 292 292 293 293 294 295 295 295 295 295 295 295 295 295 295 295 295 295 296 296 296 297 297 297 298 298 298 298 298 298 299 299 300 300 300 300 301 302 301 301 300 300 298 297 296 296 295 294 294 294 294 295 295 294 294 293 292 291 289 287 286 286 286 285 285 284 284 283 283 284 283 282 282 282 280
289 289 289 289 289 289 290 290 290 290 290 291 291 292 293 294 294 295 295 295 295 295 295 295 295 295 295 295 295 295 296 296 297 297 298 298 298 298 298 298 298 298 299 300 299 299 299 299 298 297 297 296 295 294 293 293 292 292 292 292 292 292 292 291 291 291 290 289 288 286 285 285 284 284 283 283 282 282 282 282 282 281 281 281 279
288 288 288 288 288 288 288 288 289 289 290 290 291 291 292 292 293 294 294 295 295 295 295 295 295 295 295 295 295 295 296 296 296 297 297 297 297 298 298 297 297 298 298 299 299 298 297 296 295 294 294 294 293 292 291 291 290 290 289 290 290 290 290 290 290 289 289 288 286 285 284 284 283 282 282 281 281 281 281 282 281 281 281 280 278
287 286 287 287 287 287 287 288 288 288 289 289 290 291 291 292 292 293 293 294 294 294 295 295 295 295 295 295 295 295 295 295 295 296 297 297 297 297 297 297 297 297 297 297 296 296 296 294 293 293 293 293 292 292 291 290 290 289 288 288 288 288 289 289 288 288 287 286 285 284 283 283 282 281 281 281 281 281 281 281 281 280 280 280 278
285 285 285 285 285 285 286 287 287 288 288 289 290 290 291 291 292 292 293 293 293 293 293 294 294 294 294 294 294 294 294 294 295 295 296 296 296 297 297 297 297 296 296 296 295 295 295 294 293 293 292 292 292 292 291 290 290 289 288 287 287 287 287 287 287 286 286 285 284 283 283 282 281 281 281 280 280 280 280 280 280 280 279 279 278
284 283 283 283 283 284 285 286 286 287 288 288 289 290 291 291 292 292 292 292 292 292 292 293 293 293 293 294 294 294 294 294 294 295 295 295 296 296 296 296 296 296 295 294 294 294 294 293 293 293 292 292 292 292 291 290 290 289 288 288 287 287 287 286 286 286 285 284 283 283 282 282 281 281 280 280 280 279 279 279 279 279 279 278 278
282 282 282 282 282 283 283 285 286 287 288 288 289 290 290 291 291 292 292 292 292 292 292 292 292 293 293 293 293 293 294 294 294 294 294 294 295 296 296 296 296 295 295 293 293 294 294 293 293 293 292 292 292 292 291 290 289 289 288 288 287 287 286 286 285 285 284 284 283 282 282 281 281 280 280 279 279 279 278 278 278 278 278 278 277
281 281 281 281 281 282 282 283 285 286 287 288 288 289 290 290 290 291 291 291 292 292 292 292 292 292 293 293 293 293 293 294 294 294 294 294 294 294 295 295 294 294 294 293 293 293 294 294 293 293 293 292 292 292 291 290 289 289 288 287 287 286 285 285 284 284 284 283 282 282 282 281 281 280 279 279 278 278 278 278 278 278 277 277 277
279 279 279 280 280 280 281 282 284 285 286 286 287 287 288 289 289 290 290 291 291 292 292 292 292 292 292 292 292 292 292 293 293 293 293 293 293 293 294 293 293 293 293 293 293 293 294 294 294 294 293 293 292 292 291 290 289 289 288 287 286 285 285 284 284 283 283 282 282 281 281 281 280 279 279 278 278 278 278 278 278 277 277 277 277
278 278 278 279 279 280 281 281 282 283 284 285 286 286 287 288 289 289 290 291 291 291 292 292 292 292 292 292 292 292 292 292 292 292 292 292 292 292 293 293 293 293 292 292 292 292 293 293 294 293 293 293 292 291 291 290 289 288 288 287 286 285 284 284 283 283 282 282 281 281 280 280 279 279 279 278 278 278 278 278 277 277 277 277 277
278 277 277 278 279 279 280 281 281 282 283 284 285 286 287 287 288 289 290 290 291 291 291 291 291 291 292 292 292 292 292 291 291 291 291 291 291 292 292 292 292 292 292 292 292 292 292 292 293 292 292 292 291 291 290 289 288 288 287 286 285 284 284 283 283 282 282 281 281 280 280 279 279 279 278 278 278 278 278 277 277 277 277 277 276
276 276 276 277 278 278 279 280 281 282 282 283 284 285 285 286 287 288 289 290 290 290 291 291 291 291 291 291 291 291 291 290 290 290 290 291 291 291 291 291 292 292 292 292 292 292 292 292 292 291 291 291 290 290 289 288 288 287 286 284 283 283 283 282 282 281 281 280 280 280 279 279 278 278 278 278 278 278 277 277 277 276 276 276 275
275 275 275 276 276 277 278 279 280 281 281 282 283 283 284 285 286 287 288 289 289 290 290 290 291 291 291 291 291 290 290 290 290 290 290 290 291 291 291 291 291 291 291 291 291 291 291 291 291 290 290 289 289 288 288 287 286 285 284 283 282 282 281 281 281 280 280 280 279 279 278 278 278 278 278 278 277 277 277 276 276 276 276 275 275
273 273 274 274 275 276 277 278 279 280 281 281 282 283 283 284 285 286 287 287 288 289 289 289 290 290 290 290 290 290 290 289 289 290 290 290 290 290 290 291 291 291 291 291 291 290 290 290 289 289 288 288 288 287 286 286 285 284 283 282 281 281 281 280 280 279 279 279 279 278 278 278 278 277 277 277 277 277 276 276 275 275 275 274 274
272 272 273 273 274 275 276 277 278 279 279 280 281 282 282 283 284 285 285 286 287 287 287 288 288 288 289 289 289 289 289 288 288 289 289 289 289 290 290 290 290 290 290 290 290 289 289 289 288 287 287 286 286 285 285 284 283 282 282 281 281 280 280 279 279 279 278 278 278 277 277 277 277 277 277 276 276 276 275 275 275 274 274 274 273
271 272 272 273 273 274 275 275 276 277 278 279 280 280 281 281 282 283 283 284 285 285 286 286 286 287 287 287 287 287 287 287 287 287 287 287 287 287 287 287 287 287 288 288 288 288 288 287 286 285 285 285 284 284 283 283 282 282 281 280 280 280 279 279 278 278 278 277 277 277 277 276 276 276 276 276 275 275 274 274 274 273 273 273 273
271 271 271 272 272 273 274 275 276 277 278 278 279 279 279 280 280 281 281 282 283 284 284 285 285 285 285 285 285 285 284 284 284 284 284 284 284 284 284 283 284 284 285 285 285 285 286 285 284 284 283 283 283 283 282 282 281 281 280 280 279 279 278 278 278 277 277 277 276 276 276 276 275 275 275 275 275 274 274 273 273 273 272 272 272
270 270 270 271 272 272 273 274 276 276 277 277 278 278 278 279 279 280 280 281 282 282 282 283 283 283 283 282 282 282 282 282 281 281 281 281 280 280 280 280 281 281 282 282 282 283 283 283 282 282 281 281 281 281 281 281 280 280 280 279 279 278 278 278 278 277 277 277 276 275 275 275 275 275 274 274 274 274 273 273 272 272 272 271 271
269 270 270 271 272 273 274 274 275 276 276 276 276 277 277 277 278 278 279 279 279 279 280 280 280 280 280 280 279 279 279 279 279 278 278 278 278 278 278 278 279 279 279 280 280 280 280 280 280 280 279 279 279 279 280 280 280 279 279 279 279 278 278 278 278 278 278 277 277 276 275 275 274 274 274 274 273 273 272 272 272 271 271 270 270
269 270 270 271 272 273 274 274 274 275 275 275 275 276 276 276 276 276 276 276 276 276 276 277 277 277 277 277 277 277 277 276 276 276 275 275 275 275 276 276 277 277 278 278 278 278 278 278 278 278 278 278 278 278 278 279 279 279 279 279 279 278 278 278 278 278 278 278 277 277 276 275 274 273 273 273 272 272 271 271 271 270 270 270 269
270 270 271 272 272 273 273 273 273 273 273 274 274 274 274 273 273 273 273 273 273 273 274 274 274 274 274 274 274 274 274 274 274 273 273 273 273 273 274 274 275 275 275 276 276 276 276 276 276 277 277 277 277 277 277 278 278 278 278 278 279 279 278 278 277 277 277 277 277 277 276 275 274 273 272 272 272 271 271 270 270 269 269 269 269
269 270 270 270 270 270 270 270 271 271 271 271 271 271 271 271 271 271 270 270 270 270 270 271 271 271 271 271 271 272 272 272 272 271 271 271 271 271 272 272 272 273 273 273 273 273 274 274 274 275 275 275 275 276 276 276 277 277 277 277 277 277 277 277 277 276 276 276 276 276 275 275 274 272 272 271 271 270 270 269 269 269 268 268 268
267 268 268 268 268 268 268 268 268 268 268 269 269 269 269 269 268 268 268 268 268 268 268 268 268 269 269 269 269 269 269 269 269 268 268 269 269 269 270 270 271 272 272 272 271 272 272 273 273 273 274 274 274 274 275 275 275 275 275 275 275 275 275 275 275 275 275 275 274 274 274 273 272 271 270 270 269 269 269 268 268 268 268 267 268
266 266 266 266 266 266 266 266 266 266 266 267 267 267 267 267 267 267 267 266 266 266 266 266 266 266 267 267 267 267 267 267 267 267 267 267 267 267 268 269 269 270 270 270 271 271 272 272 272 273 273 273 273 273 273 273 273 273 273 273 273 273 273 273 273 273 273 273 273 273 272 272 271 270 269 269 268 268 268 267 267 267 267 267 267
Wind_Speed
16 16 16 17 20 25 27 28 28 28 29 30 31 33 34 34 35 34 33 33 34 34 34 34 35 35 35 36 36 36 37 38 39 39 39 39 39 39 38 38 38 37 36 36 36 36 36 36 36 36 36 35 34 33 33 34 33 32 30 29 29 28 27 23 15 11 14 19 21 22 24 25 24 25 27 27 26 25 25 25 26 27 28 29 30
18 17 17 16 18 21 24 26 27 28 28 30 32 33 34 34 34 33 33 34 33 33 34 34 35 35 35 35 36 36 37 37 37 38 38 38 37 37 37 38 38 38 37 37 38 38 37 36 35 36 37 37 35 34 34 35 34 33 33 31 30 30 29 27 21 14 12 17 21 22 23 24 25 27 28 27 26 25 25 24 25 26 28 28 29
19 19 18 17 18 19 21 24 25 26 28 29 31 32 33 32 32 31 32 33 33 33 33 33 34 34 35 35 36 36 37 37 37 37 37 37 37 37 37 38 38 38 37 37 38 37 36 36 36 36 35 36 36 35 35 36 35 35 35 35 34 33 32 31 26 19 15 17 22 26 26 27 27 27 27 26 25 24 24 23 24 26 28 28 28
20 20 19 18 18 18 20 22 23 25 27 29 30 31 31 31 31 31 32 32 32 32 32 32 33 33 34 34 35 35 36 37 37 36 36 36 37 37 37 37 38 38 38 37 36 36 36 36 36 36 36 36 36 36 36 36 35 35 35 35 36 36 35 34 32 29 23 19 22 27 28 27 27 26 25 24 24 24 24 24 25 26 27 27 27
20 20 20 20 19 19 19 20 22 25 26 28 30 30 30 30 30 30 31 31 31 31 31 32 32 33 34 34 34 34 35 36 37 36 36 36 36 37 38 38 38 38 38 38 37 37 37 38 38 36 36 36 36 36 36 36 36 36 36 35 35 36 35 34 35 34 29 23 21 22 23 24 24 24 24 23 23 23 23 24 25 25 26 27 26
20 21 20 20 21 20 19 19 21 23 24 26 28 29 29 29 29 29 30 30 31 31 31 31 32 33 34 33 33 34 35 35 35 35 35 35 36 37 38 38 38 39 39 39 39 40 40 41 40 39 38 38 37 35 35 36 36 37 37 36 36 35 34 33 34 34 31 27 23 21 21 23 22 22 23 24 23 23 23 23 24 25 25 26 26
20 21 20 20 21 21 20 19 20 22 23 23 24 26 27 28 28 28 29 29 30 31 31 31 30 31 32 33 33 34 34 34 35 35 35 35 36 37 37 38 38 39 40 40 40 41 41 41 41 40 40 39 38 37 35 35 35 35 36 36 36 35 34 34 34 32 30 27 24 21 22 22 20 20 21 21 20 21 22 21 21 24 25 25 26
21 21 21 20 21 21 21 21 20 21 22 23 23 24 25 26 27 27 27 29 30 31 31 31 31 30 30 31 32 33 32 33 34 35 36 36 37 37 38 38 38 38 39 40 40 40 40 41 41 41 40 40 39 38 37 36 36 36 37 37 37 35 34 34 33 31 30 27 23 21 20 19 19 18 17 17 18 21 24 23 21 22 23 24 25
22 21 21 21 22 22 21 22 21 21 21 23 24 24 24 25 26 26 27 29 30 31 31 30 30 31 31 31 32 32 33 34 35 36 37 37 37 37 37 37 37 38 38 38 38 39 40 41 42 42 42 42 41 40 39 39 38 37 36 37 36 35 33 32 31 29 26 22 19 18 16 17 20 19 18 21 23 23 22 22 23 22 19 18 19
22 21 21 22 22 22 21 22 23 22 21 23 24 24 24 24 24 26 28 29 30 30 30 30 31 33 33 33 33 34 35 37 38 38 39 38 38 37 36 37 37 37 37 37 37 38 40 41 41 41 42 42 43 42 40 40 40 39 38 37 37 36 34 31 29 27 24 20 19 18 15 15 21 24 24 26 26 22 19 21 23 20 15 12 14
23 23 23 23 22 22 22 22 23 23 24 24 24 24 23 23 24 27 29 30 30 28 28 30 32 33 33 34 34 36 38 40 40 41 41 41 41 39 38 37 37 37 37 37 37 38 39 40 40 40 41 41 41 41 39 38 40 41 40 39 39 38 37 33 29 27 25 21 21 22 19 18 23 27 27 25 24 23 22 22 21 18 14 11 7
24 24 25 25 24 23 23 23 23 24 25 25 25 24 23 23 23 25 28 30 30 29 29 31 31 31 30 32 33 35 37 38 38 39 41 42 42 41 40 38 37 37 37 37 38 38 37 38 39 39 39 39 38 38 38 38 40 40 39 40 41 41 40 37 32 30 29 26 23 24 24 23 24 27 28 26 25 25 23 21 20 19 17 14 10
23 24 25 26 26 26 25 25 25 26 26 26 25 23 23 25 25 25 26 26 27 29 31 32 33 32 31 32 34 35 36 37 37 38 39 40 40 41 42 41 39 38 37 37 38 38 37 37 38 38 38 37 37 36 35 36 37 37 38 39 40 40 38 36 33 31 32 31 29 28 29 28 26 27 28 27 25 24 23 22 23 21 19 19 18
22 23 24 25 26 27 27 26 27 27 27 26 25 24 24 26 27 27 26 25 26 27 29 30 32 33 33 34 35 36 37 38 38 37 38 38 38 39 42 42 41 39 38 37 37 38 38 37 37 38 38 36 35 34 33 34 36 37 37 37 37 37 36 34 33 31 30 31 30 30 31 30 28 26 26 25 25 24 25 25 25 23 22 20 18
21 21 22 23 25 25 25 26 27 28 27 26 25 25 25 26 27 27 26 26 26 27 27 27 29 31 32 33 34 36 39 39 36 36 37 36 36 36 39 41 41 40 39 38 38 37 38 38 38 38 37 36 34 33 34 36 37 36 36 35 35 36 35 33 33 32 30 29 30 29 28 27 26 25 23 23 23 22 23 21 19 20 20 17 14
21 21 21 22 23 24 25 26 27 28 28 27 26 26 26 27 28 26 26 27 26 27 27 27 28 29 29 30 31 36 39 37 35 36 36 35 35 35 37 39 40 40 40 39 39 38 38 37 37 37 36 36 36 35 35 36 36 35 34 33 33 34 34 34 33 31 29 28 28 27 25 24 24 23 22 21 20 20 20 16 15 17 17 14 13
22 23 23 23 24 25 25 26 27 28 28 28 28 28 27 28 27 26 26 27 26 27 28 28 28 27 28 28 30 34 38 35 33 34 34 34 34 35 36 38 38 39 39 39 40 40 39 38 37 36 36 35 35 35 35 35 35 35 33 31 31 30 31 32 31 29 27 27 26 25 24 23 22 21 21 20 20 22 23 20 19 21 19 12 10
23 25 26 27 27 26 25 25 26 27 27 28 28 29 29 29 28 26 25 26 27 27 26 27 28 27 27 29 29 32 36 34 30 30 31 31 32 34 36 36 36 37 38 39 40 40 39 38 37 37 37 36 35 35 35 35 35 34 32 30 28 28 30 30 28 25 24 24 23 22 22 22 22 22 22 22 22 24 25 23 23 25 22 14 10
23 26 28 29 29 28 27 26 25 25 26 27 28 29 30 29 28 26 25 26 27 27 26 26 28 28 27 28 28 29 33 33 29 29 29 28 29 32 34 34 34 35 36 37 37 37 37 37 36 37 37 36 36 36 35 35 35 35 34 31 29 30 33 32 29 28 28 27 25 25 24 24 24 24 24 23 23 24 23 22 24 26 24 18 15
24 25 27 28 29 29 29 28 27 26 26 28 29 29 28 28 28 27 27 26 26 26 25 25 28 29 27 27 28 28 30 31 29 28 28 28 27 30 33 34 34 34 33 33 33 33 35 35 35 36 36 35 35 36 35 35 36 37 36 34 33 33 34 33 32 32 33 32 31 30 28 26 26 25 24 23 22 22 22 21 22 25 24 22 21
26 27 27 27 28 28 28 28 29 29 28 29 30 29 28 27 27 27 27 27 26 26 26 25 27 30 28 27 28 28 28 29 29 27 26 27 27 28 31 35 35 32 30 31 31 32 33 34 35 35 35 34 35 35 35 35 36 38 39 39 38 37 36 36 35 34 33 32 30 29 27 26 25 24 24 23 22 22 22 21 20 21 21 21 23
28 29 29 28 28 28 28 28 28 29 29 29 30 30 29 27 27 26 25 26 26 27 27 25 26 29 29 27 28 28 28 27 28 27 26 26 26 28 31 34 34 31 30 31 32 32 32 33 34 34 33 33 33 33 34 35 36 38 40 40 37 35 34 35 35 33 31 30 28 27 26 25 25 25 25 25 25 24 22 21 20 20 19 19 21
31 31 30 30 29 29 29 29 28 28 27 27 27 29 29 28 27 26 25 24 25 26 26 24 24 28 29 28 27 27 27 27 27 26 25 25 26 28 30 32 32 32 33 34 32 31 31 31 31 31 30 31 32 33 34 34 35 37 37 36 33 30 29 31 32 32 30 29 27 26 26 26 26 26 27 27 26 25 23 22 21 20 19 19 18
33 33 32 32 32 32 31 30 28 26 25 25 25 26 27 26 26 25 24 23 23 24 24 23 22 24 26 27 27 25 25 25 25 25 25 24 25 27 29 30 30 31 33 35 32 30 30 30 30 31 31 32 33 34 34 34 35 35 35 34 32 29 28 30 31 30 28 27 26 25 25 27 27 27 29 29 27 26 24 22 20 19 18 18 16
32 31 32 32 32 33 33 32 30 27 25 24 23 24 25 25 24 24 22 21 21 22 23 22 22 22 24 26 27 27 25 24 25 24 24 24 25 26 28 30 30 29 31 33 32 30 29 30 30 30 31 31 32 32 32 33 33 33 33 33 32 31 31 31 32 30 27 26 25 25 25 27 27 28 29 29 28 26 25 23 21 19 18 17 16
30 30 31 32 32 32 32 33 32 30 28 25 23 22 22 22 23 23 21 20 20 21 22 22 21 22 23 25 27 27 26 26 26 25 24 24 24 25 26 28 29 29 29 30 30 28 26 25 24 25 26 27 28 28 29 30 30 29 28 29 30 31 31 31 32 30 28 27 26 25 26 27 27 28 29 29 28 27 26 25 23 21 20 20 19
28 30 31 32 32 31 30 31 32 32 31 28 26 24 22 20 21 21 20 19 19 19 20 20 20 19 21 24 26 27 27 25 25 25 25 25 25 24 24 26 27 28 28 28 27 25 22 20 19 20 21 21 22 24 24 25 26 26 26 27 29 30 30 31 32 31 29 28 27 26 27 28 28 29 29 29 28 27 26 26 26 24 22 22 22
26 27 29 29 30 29 29 29 30 31 31 29 27 26 24 22 22 22 20 20 20 20 20 20 20 20 22 23 24 25 25 23 22 24 26 26 26 25 24 23 24 25 27 26 25 23 21 19 17 17 18 19 20 21 21 22 23 25 26 26 27 27 28 28 27 26 25 26 27 28 29 30 29 29 29 28 28 27 26 25 26 26 26 24 22
25 25 25 26 26 27 27 27 27 28 29 29 28 26 24 22 23 25 25 21 20 22 24 24 24 23 24 24 22 22 23 23 22 24 25 25 26 27 26 25 23 23 24 24 22 20 19 18 18 18 20 21 22 22 22 22 22 23 24 24 24 24 25 25 24 23 24 26 29 31 31 30 28 28 28 26 26 27 26 25 27 27 26 23 21
24 23 23 23 24 25 25 25 25 25 25 27 29 29 27 23 20 23 25 23 21 21 23 26 27 26 27 28 26 24 27 29 28 27 26 25 25 26 27 27 25 23 22 22 22 21 20 20 19 20 22 22 22 23 24 24 23 22 23 24 23 24 24 24 23 24 26 28 31 32 32 30 28 28 27 26 25 25 25 26 27 27 25 22 21
22 22 23 23 23 24 24 24 24 24 24 24 25 27 29 29 25 22 21 20 20 20 21 23 25 24 27 30 30 30 31 33 32 30 28 27 26 25 27 27 26 25 23 21 23 24 23 21 19 19 20 21 20 22 23 25 25 24 23 23 24 25 25 24 23 24 25 26 28 29 30 29 29 28 27 27 26 25 24 25 26 25 24 23 23
21 22 22 22 22 22 22 23 23 23 23 23 22 22 24 27 29 28 25 21 20 20 21 22 22 21 22 26 29 31 32 31 31 31 30 28 27 27 27 27 27 26 25 24 24 23 22 20 19 19 21 21 21 22 24 25 25 26 25 25 25 26 27 27 27 27 28 27 27 28 29 29 28 28 27 27 27 26 24 25 25 24 23 23 23
21 23 22 20 21 21 20 20 21 21 22 23 22 21 20 19 22 27 31 31 28 25 22 19 19 20 21 21 24 27 29 30 31 31 31 30 28 27 28 29 28 27 26 26 24 21 20 20 20 20 22 22 22 23 24 24 25 27 28 29 29 31 31 31 31 31 30 30 30 29 29 29 29 28 27 27 27 26 25 24 24 24 23 22 22
24 24 22 21 21 21 20 20 22 22 22 21 21 20 20 20 20 22 26 28 29 28 25 21 20 20 22 22 23 24 26 27 28 29 30 31 29 28 28 30 29 28 28 29 26 22 21 21 21 21 22 23 23 23 23 24 25 26 27 28 28 29 30 32 33 33 31 31 31 30 29 29 29 29 28 26 25 24 23 23 24 23 23 22 22
26 25 23 21 21 21 21 21 22 22 21 21 21 20 20 21 22 22 22 21 21 24 26 26 25 23 23 24 25 25 25 26 27 28 28 29 29 28 28 27 25 24 26 29 28 24 22 22 21 22 24 24 25 26 26 26 27 28 28 27 26 27 28 30 32 32 32 33 32 31 30 29 29 29 29 27 25 23 23 23 23 23 23 23 23
25 24 23 21 21 22 22 21 21 21 22 22 23 23 22 22 22 22 22 22 21 22 25 26 27 26 25 25 25 25 25 26 27 28 28 28 28 27 26 24 21 20 23 26 26 25 24 23 22 22 24 24 25 26 27 28 29 29 30 29 29 29 30 31 32 32 33 32 31 31 30 30 29 29 28 26 24 24 23 23 23 23 23 24 24
26 25 24 23 23 23 24 23 22 22 23 23 23 23 23 22 21 21 21 21 21 22 24 25 25 24 23 22 21 23 25 27 27 28 28 27 26 27 27 25 22 21 22 23 24 25 25 24 23 22 23 24 24 25 25 25 26 26 27 27 27 28 29 31 33 33 32 31 30 31 31 30 30 31 30 26 24 23 23 24 23 23 23 24 24
26 26 26 25 24 24 24 24 23 22 21 21 21 21 21 21 20 20 20 20 20 21 22 22 22 20 20 20 20 22 25 26 25 25 25 25 24 25 27 26 24 23 22 23 24 25 25 25 24 23 23 24 25 25 25 25 25 25 25 25 25 26 27 29 30 30 30 29 30 30 31 30 30 31 30 27 26 25 24 24 24 23 23 23 23
26 27 26 24 23 23 23 22 22 21 20 20 20 20 20 20 19 18 18 19 19 20 20 20 20 20 20 20 20 20 21 21 20 21 22 23 23 24 25 25 24 24 23 23 24 24 25 25 24 24 23 24 25 26 26 26 26 27 27 27 26 26 27 28 29 29 29 29 29 29 29 29 30 30 29 28 27 26 25 25 24 24 23 22 21
27 27 25 23 22 22 22 22 21 20 20 20 20 19 19 19 18 18 18 18 18 19 19 19 20 20 20 21 20 19 18 19 19 20 21 21 22 23 24 24 24 24 24 24 24 24 25 25 24 24 24 24 25 26 27 27 28 28 28 28 28 27 27 28 28 29 29 29 29 29 29 29 30 30 28 27 27 27 27 25 24 23 23 22 21
27 26 24 22 21 21 22 21 20 21 22 22 21 20 20 20 20 19 19 18 18 19 19 20 21 21 21 21 20 20 20 21 21 21 21 21 22 22 23 24 24 24 23 23 23 24 24 24 23 23 24 24 24 25 26 27 28 28 28 28 28 27 26 26 27 28 29 30 30 30 30 31 32 31 29 27 27 26 26 25 23 22 21 21 22
25 24 22 20 20 20 20 20 21 22 22 22 21 20 20 20 20 20 19 19 19 19 19 21 22 22 22 21 21 21 22 23 23 22 22 22 21 21 21 21 21 21 21 21 21 22 23 23 22 22 22 23 24 24 25 27 28 29 29 29 29 29 28 27 27 28 30 30 30 30 31 32 32 31 29 28 28 26 25 24 23 22 21 21 22
21 21 20 20 20 20 21 21 22 22 22 21 21 22 21 21 22 22 21 21 21 20 20 20 21 21 21 22 21 21 23 23 23 22 22 21 20 18 18 17 17 17 17 17 18 19 21 21 20 19 20 22 23 25 26 27 28 29 29 29 29 29 29 29 29 30 30 30 30 30 31 31 31 31 30 29 28 26 25 24 23 22 22 22 22
21 20 20 20 20 20 21 21 21 21 22 22 23 23 23 23 23 23 22 21 21 20 20 20 21 21 20 20 19 20 21 21 20 19 18 17 16 14 13 12 11 11 12 12 13 15 17 18 18 18 18 20 21 23 25 27 29 30 31 31 31 31 31 31 32 32 32 32 32 31 31 31 31 31 30 29 28 26 25 24 24 23 22 22 22
21 20 19 19 19 19 19 19 19 20 21 21 21 21 21 21 21 20 20 20 20 20 20 20 20 20 18 17 16 16 17 17 15 14 14 12 11 10 9 8 8 8 8 9 11 13 15 17 17 18 18 19 20 23 24 26 28 30 32 33 33 32 32 33 34 34 34 34 34 33 32 31 31 31 30 29 28 27 26 25 25 24 23 23 22
20 19 18 18 18 17 17 18 19 19 19 19 19 19 19 18 18 19 19 19 19 19 19 19 18 16 14 13 12 12 13 12 11 11 10 9 8 8 7 7 8 8 9 10 12 13 15 17 18 19 19 19 20 22 23 25 27 28 30 32 33 33 33 34 34 34 34 34 34 33 32 31 30 30 30 29 28 27 26 25 25 24 24 23 22
19 19 18 18 17 16 16 17 17 17 17 17 17 17 17 17 17 17 18 18 18 18 17 16 15 13 11 10 9 9 9 8 8 7 7 6 6 7 7 8 9 10 11 12 13 14 16 17 18 19 20 20 21 21 22 23 25 27 28 30 31 32 32 33 32 32 31 31 31 31 31 31 30 29 29 28 28 27 26 25 25 24 24 24 23
17 16 15 14 13 13 13 14 14 14 14 15 15 15 15 15 14 14 15 15 15 14 13 12 11 9 8 7 6 5 5 5 5 5 5 6 7 7 8 10 11 12 13 14 14 15 16 18 19 20 21 22 22 22 22 22 23 23 24 25 27 28 30 30 29 29 28 27 27 27 28 29 29 29 28 28 28 27 26 26 24 24 24 24 23
12 11 10 9 10 10 10 10 11 11 12 12 12 12 12 12 12 12 13 14 14 14 14 12 11 9 7 5 3 1 1 3 4 5 6 7 8 9 10 11 13 13 14 15 16 17 18 20 21 22 23 23 23 23 23 23 23 23 23 24 25 26 27 26 26 25 25 24 25 25 25 26 27 28 27 27 27 27 26 26 25 24 24 24 24
11 10 10 10 11 11 11 11 10 10 11 10 10 10 11 11 12 14 15 16 17 17 17 16 15 13 12 9 7 6 5 5 6 7 8 9 10 11 13 14 15 17 18 19 20 21 22 23 23 24 24 23 23 23 22 23 23 23 23 23 23 23 23 23 22 22 22 22 23 24 24 25 26 26 26 26 26 26 26 26 25 25 25 25 25
12 12 12 13 13 14 14 13 13 13 12 11 11 11 11 11 13 15 17 18 18 19 18 18 18 17 16 14 13 11 11 10 10 11 11 12 13 15 17 19 20 21 22 22 22 22 22 22 23 22 22 22 21 21 20 20 20 20 20 20 20 20 20 20 20 20 20 21 22 23 23 24 25 25 26 26 26 25 26 26 25 25 24 24 24
Wind_Direction
322 314 305 287 273 266 262 259 255 251 248 245 244 244 244 244 243 242 241 240 239 237 236 236 234 234 233 230 229 228 228 228 227 226 226 226 226 226 226 226 227 229 231 232 233 234 235 235 235 234 235 236 235 234 234 235 236 238 240 238 234 233 232 232 241 252 239 230 229 230 229 229 235 243 245 244 242 241 243 246 248 248 248 250 251
328 322 315 301 286 276 269 264 260 256 252 249 247 246 245 245 244 243 242 241 240 237 236 236 235 235 233 231 230 229 229 229 228 227 226 226 226 225 225 226 228 230 231 232 233 234 234 234 234 234 233 234 234 234 234 234 235 236 238 238 237 235 233 233 238 246 241 228 224 224 226 229 236 241 240 239 240 242 244 245 246 246 246 247 249
330 327 320 308 297 286 276 269 263 259 255 252 251 249 248 248 247 245 244 243 241 239 238 236 236 236 234 233 232 232 232 232 230 228 228 227 227 227 227 228 230 231 231 232 232 232 232 232 232 232 231 232 232 232 233 233 233 234 235 235 236 237 235 234 236 242 243 237 231 228 228 231 234 236 237 238 240 243 244 246 247 247 246 247 248
328 326 321 314 305 293 282 274 266 261 259 257 256 255 253 252 249 248 247 246 243 241 240 238 237 237 236 234 234 233 234 233 232 230 230 230 230 230 231 231 232 232 232 232 231 230 230 230 231 231 230 230 232 231 231 231 231 232 233 232 232 235 236 235 235 238 242 242 235 230 230 230 230 232 235 236 238 241 243 243 245 246 248 249 249
324 324 320 316 310 299 290 281 269 262 261 260 260 259 258 255 253 251 249 247 245 243 242 240 239 239 238 236 235 234 235 234 232 231 231 231 232 233 234 233 233 234 233 233 232 230 230 230 231 230 228 228 229 230 229 229 229 231 233 233 233 235 235 234 233 234 236 235 231 228 227 226 226 229 233 235 235 237 239 240 243 245 247 247 247
321 321 318 316 312 306 299 290 278 268 263 261 261 261 260 258 256 254 252 250 248 246 245 244 242 241 241 239 239 238 237 235 233 232 232 232 233 234 234 234 233 233 233 233 232 231 231 231 231 230 228 227 228 230 230 230 229 230 231 232 234 235 234 233 233 232 232 234 232 226 221 220 220 223 228 230 231 233 235 238 241 242 243 244 245
319 318 315 313 312 309 306 300 290 279 270 266 264 262 260 259 257 256 255 252 250 248 246 245 245 245 244 243 243 243 241 237 235 233 233 233 233 234 234 234 233 233 233 232 232 232 232 232 232 231 229 229 231 232 232 231 230 230 231 231 232 233 232 233 233 231 231 233 233 226 219 215 215 220 226 226 227 232 234 232 235 239 241 243 245
315 313 310 307 308 309 307 304 298 289 279 272 268 264 261 259 257 256 255 253 251 250 248 246 245 245 246 246 245 245 243 240 237 236 236 235 235 235 235 235 234 234 234 233 233 233 234 235 235 235 234 234 234 233 233 232 231 231 232 233 232 231 229 229 229 228 229 229 226 220 212 207 209 215 217 213 216 227 230 226 231 239 241 242 245
309 307 303 300 303 306 304 301 298 293 285 276 270 266 263 259 257 255 253 251 251 250 249 247 245 244 245 246 246 245 243 242 241 240 239 238 237 237 237 237 237 237 237 236 236 236 238 239 239 239 239 239 237 237 237 236 234 231 232 232 231 229 229 228 227 224 222 221 218 211 202 202 205 202 201 208 216 225 228 225 230 238 240 243 249
303 299 296 297 301 303 301 298 295 291 286 281 276 271 266 261 257 254 251 250 250 250 249 247 244 242 243 243 243 243 242 242 242 241 240 240 239 239 239 239 239 239 240 240 240 241 242 242 242 241 241 241 239 239 239 239 238 237 237 236 233 230 228 226 224 220 215 211 209 202 195 203 208 205 210 220 222 223 222 222 226 230 230 239 253
300 295 294 297 299 299 297 296 293 289 286 283 279 275 270 266 261 257 255 253 251 250 249 247 245 243 242 242 242 242 243 243 242 242 242 242 240 239 240 240 240 240 241 241 242 243 243 242 242 242 242 241 239 238 239 242 243 243 242 242 241 239 233 226 221 217 213 211 211 206 201 208 214 214 217 222 223 222 222 222 220 216 210 213 236
301 297 297 298 298 297 295 293 291 289 287 285 283 281 277 271 266 263 260 258 254 251 249 248 249 248 246 245 245 245 246 247 246 245 245 244 243 242 242 242 243 242 242 242 242 243 242 242 241 241 240 240 240 239 240 243 243 243 244 244 244 243 240 234 227 221 215 212 210 207 209 213 215 215 217 219 221 221 221 220 217 211 205 204 208
306 301 300 300 299 299 299 296 292 291 291 291 290 287 280 274 271 269 268 265 260 255 252 251 251 251 249 249 248 248 249 249 249 248 248 247 246 244 244 244 244 244 243 242 242 242 241 241 240 239 239 240 239 239 240 244 244 244 245 245 242 241 240 238 235 232 227 220 212 211 217 217 214 218 223 223 219 214 210 212 215 212 208 211 218
314 310 306 304 303 303 304 302 299 298 297 296 294 289 283 279 278 277 277 273 266 261 259 256 254 252 250 250 251 251 251 251 251 250 250 250 248 246 245 245 245 246 245 244 243 242 241 240 240 240 239 238 237 238 241 244 246 246 245 243 241 238 236 234 233 231 230 227 223 223 225 224 223 229 232 227 220 215 211 210 212 212 213 219 226
324 322 318 315 312 310 310 307 305 304 303 300 295 290 286 284 284 284 283 280 274 271 267 263 260 257 254 252 253 254 254 252 252 252 251 251 250 249 247 246 245 247 248 247 246 244 243 242 241 240 239 239 240 243 246 245 244 244 242 240 237 234 231 230 227 224 225 227 228 230 231 231 232 233 232 227 223 224 222 217 216 216 215 216 216
334 334 330 328 325 322 318 313 309 308 306 302 296 291 288 287 287 288 286 284 280 277 273 269 266 264 260 257 255 256 258 256 252 251 251 251 250 249 248 247 246 247 248 248 248 247 246 244 242 240 240 241 244 247 248 246 241 238 236 234 232 229 227 227 224 222 224 225 226 228 229 230 229 227 225 220 213 213 212 209 208 206 200 196 198
340 339 335 332 330 327 325 320 315 312 309 305 300 296 294 292 292 291 288 285 283 279 278 277 274 270 267 262 258 259 262 261 256 254 252 250 250 249 247 246 246 247 248 248 248 248 247 245 245 244 243 244 245 245 245 243 237 232 229 226 223 221 221 221 219 218 220 220 222 225 223 220 216 214 213 209 202 199 194 188 193 193 188 188 195
339 336 332 331 329 328 327 324 320 316 313 309 305 303 300 297 296 294 289 286 285 283 282 282 280 276 272 268 264 263 266 266 263 260 257 253 251 250 248 247 247 248 249 249 249 248 247 246 245 243 242 244 246 245 244 238 231 226 222 217 213 213 215 213 209 207 209 212 215 215 212 208 204 202 201 199 199 199 195 195 197 192 189 193 187
334 331 329 329 330 330 329 325 322 320 316 312 310 307 304 301 299 295 291 288 287 287 286 284 282 281 277 275 271 268 269 270 268 265 263 258 254 253 251 249 248 248 248 249 250 249 248 247 245 242 243 245 246 244 240 234 228 224 220 212 206 209 212 210 206 204 204 205 205 203 201 199 197 197 198 198 200 203 206 210 208 199 195 192 173
329 327 327 329 331 332 332 330 328 327 324 321 317 312 307 304 300 296 293 291 289 287 285 283 283 283 281 279 277 273 272 273 272 269 267 263 258 255 252 249 248 249 249 250 250 250 248 246 244 243 244 245 245 242 236 233 230 226 220 212 210 214 216 213 212 210 206 202 201 200 199 198 197 198 200 201 203 204 207 212 213 208 203 192 177
329 328 328 330 333 335 336 335 333 332 331 329 325 320 316 310 303 299 296 292 289 287 284 282 282 283 282 280 278 275 273 274 274 272 270 266 261 255 251 250 250 251 253 252 250 249 249 248 248 247 246 244 242 238 235 235 232 226 221 218 220 223 220 215 211 207 202 198 196 196 196 196 197 199 199 198 197 197 199 201 203 204 202 192 182
331 329 330 331 333 336 337 337 336 335 334 335 331 327 326 321 312 306 300 294 290 287 285 284 282 283 283 280 278 276 275 274 274 272 269 266 262 256 253 254 255 254 254 254 252 250 250 250 250 250 247 244 243 240 239 238 232 226 224 223 221 220 217 211 205 198 194 191 189 188 189 190 191 192 190 189 188 189 191 190 189 190 190 188 186
333 331 331 333 334 336 336 336 338 337 336 337 333 330 330 328 321 314 306 299 294 290 289 288 285 284 285 282 279 277 277 275 274 271 268 265 262 259 257 257 258 255 252 253 253 253 252 251 251 251 250 250 250 248 245 238 230 226 226 223 218 216 211 204 197 190 187 185 183 182 184 185 185 184 184 184 184 184 185 184 183 183 180 178 181
336 334 333 333 334 336 336 336 337 337 338 338 333 329 329 328 323 319 312 304 299 294 293 293 288 285 286 287 285 282 280 278 276 273 270 266 262 260 259 259 258 255 251 251 252 254 254 254 255 256 256 254 252 249 245 238 231 228 226 221 217 213 206 198 192 186 182 181 181 182 183 184 184 183 182 182 182 182 182 180 179 180 177 172 170
336 334 333 332 333 335 335 335 336 336 336 337 332 328 326 323 318 316 312 305 298 293 293 294 291 287 288 289 290 291 289 285 280 276 272 267 263 260 259 259 259 257 253 251 251 252 254 256 256 255 255 254 249 243 238 234 229 225 220 215 210 206 200 194 189 184 181 182 184 184 184 185 184 183 182 181 179 178 176 173 171 171 171 166 159
335 333 332 330 331 333 333 332 333 332 331 332 329 325 322 317 311 308 305 300 293 289 290 291 290 289 289 288 290 293 292 288 283 279 275 270 265 263 261 259 259 259 256 252 250 250 252 253 253 251 250 250 245 236 231 229 225 219 215 211 206 202 198 193 187 184 184 185 184 183 183 182 181 180 179 178 176 175 174 170 163 162 165 161 151
334 331 331 329 329 331 330 329 328 327 326 327 325 322 319 313 305 299 296 294 289 285 285 286 286 286 287 288 290 292 291 289 286 283 279 274 270 268 265 261 260 259 256 251 246 246 247 247 246 244 241 238 235 231 228 226 219 214 212 210 206 204 202 198 194 192 189 185 181 179 177 174 173 174 174 174 174 174 175 172 163 157 160 159 146
329 327 326 326 326 326 326 324 323 322 321 322 321 318 316 312 303 295 291 288 285 283 283 282 282 283 284 288 292 293 291 289 287 286 283 280 277 274 269 263 258 256 254 249 243 241 242 239 233 227 221 216 214 214 216 214 210 208 207 206 205 205 202 200 198 195 189 180 173 169 166 165 166 168 170 172 173 171 173 173 166 159 159 156 144
323 322 321 321 321 322 321 319 318 318 317 318 317 314 311 308 302 297 296 292 286 284 283 281 280 282 283 285 289 290 289 291 294 294 292 287 283 279 274 268 262 257 253 247 239 233 230 225 216 205 200 198 197 197 198 199 201 204 204 203 203 203 200 197 195 190 183 174 167 163 161 161 162 164 166 168 167 167 170 171 165 160 161 158 147
318 317 318 318 317 317 316 315 315 315 314 315 316 315 312 309 302 296 296 297 293 288 285 283 284 284 282 281 282 282 284 289 294 296 294 289 284 281 279 276 271 263 253 241 230 224 220 215 209 201 196 194 192 189 188 188 192 197 199 199 199 199 198 198 195 188 180 174 168 164 162 160 161 163 163 161 160 162 168 169 165 161 161 155 146
315 315 316 314 313 313 311 310 311 311 311 311 313 313 313 313 309 302 298 298 298 295 291 289 289 285 281 280 281 281 282 287 290 289 288 285 282 280 280 279 273 264 252 232 218 216 216 212 209 205 202 201 199 194 190 189 191 192 192 192 195 196 194 193 191 185 177 171 168 164 163 163 163 163 162 159 156 157 163 167 165 163 161 155 147
311 310 311 309 309 308 306 304 305 306 307 309 310 309 310 312 312 311 308 304 300 298 295 293 292 289 285 283 284 284 284 284 285 284 284 282 278 277 278 277 271 264 252 231 219 218 215 211 209 206 203 204 205 200 196 194 192 189 186 187 191 193 192 190 187 182 176 172 170 167 165 165 164 163 163 159 155 155 160 164 165 162 158 152 147
308 307 307 305 304 303 300 301 301 300 301 303 304 303 303 304 306 309 310 310 307 304 300 297 296 297 295 291 289 289 289 288 285 282 281 279 275 274 275 273 270 262 245 227 221 221 216 212 213 211 206 206 206 203 200 198 195 192 191 191 191 191 190 187 183 179 177 175 172 169 167 166 164 162 162 160 158 159 162 164 163 159 153 148 145
308 304 302 301 300 299 297 297 297 297 296 296 295 295 296 295 296 300 304 308 310 309 306 305 305 305 303 300 297 295 295 294 290 284 280 277 273 272 272 271 268 259 242 229 226 225 216 212 213 211 209 208 207 203 201 200 197 195 196 196 195 191 187 183 179 177 175 174 171 168 167 167 165 163 161 160 161 163 164 163 161 157 152 148 145
307 302 299 297 295 294 293 293 294 293 292 291 290 289 290 291 291 291 292 295 299 301 301 302 303 304 303 301 300 298 297 296 293 289 284 278 272 269 267 264 259 251 241 234 233 232 225 218 214 210 208 208 207 204 202 200 199 197 196 195 193 188 184 180 177 175 173 171 169 168 168 168 168 166 162 160 164 166 166 165 163 159 155 151 147
305 301 298 296 294 293 292 290 290 290 290 289 287 286 286 285 283 283 283 283 284 287 291 295 298 300 299 297 298 299 298 297 295 292 287 281 274 265 257 251 247 243 239 237 238 239 237 231 224 217 212 210 209 208 206 203 201 200 197 193 189 185 182 180 177 174 171 169 167 166 167 168 169 165 160 161 167 169 166 164 162 160 157 154 152
303 300 298 297 296 295 293 291 289 287 287 287 285 284 283 281 279 278 278 278 279 282 286 291 296 298 297 296 298 300 300 299 296 292 287 282 274 260 250 245 244 242 240 238 237 239 240 239 234 227 219 214 212 210 209 206 203 201 198 194 189 186 183 180 176 173 169 167 166 166 167 169 168 164 160 162 165 165 163 161 159 158 158 156 153
297 296 296 296 295 294 293 292 291 289 287 286 285 285 284 282 281 279 278 278 279 280 283 287 289 289 290 293 296 298 298 297 294 290 285 279 269 255 247 244 243 242 242 241 238 238 239 239 237 232 224 217 213 209 206 203 200 197 194 191 189 186 181 176 173 171 168 166 166 167 168 169 166 162 160 161 162 161 160 159 156 154 156 158 157
297 295 294 292 290 290 289 289 289 290 289 287 286 287 287 286 285 282 280 280 280 280 281 283 283 282 285 290 292 291 289 286 284 282 280 275 265 254 247 243 242 242 243 242 240 238 238 238 236 232 225 219 212 207 203 198 195 192 189 186 182 179 176 172 170 169 168 166 165 166 167 166 161 159 159 161 160 158 158 159 158 157 158 161 161
298 296 295 291 287 285 284 283 283 284 285 285 285 286 286 286 286 285 284 283 282 281 280 280 279 281 284 286 285 282 277 275 275 276 275 271 264 257 250 245 243 242 242 241 239 237 236 236 233 229 223 218 212 205 200 195 190 187 184 181 178 176 175 173 170 168 166 164 163 163 164 161 156 154 156 159 159 158 157 158 160 162 161 159 158
298 296 294 291 288 285 282 279 279 280 280 279 280 280 280 281 281 280 279 279 279 281 281 280 280 283 285 284 281 276 272 271 273 274 273 270 266 260 254 250 247 246 244 242 238 235 233 232 230 225 220 215 209 203 196 190 186 182 179 177 175 173 171 170 169 166 163 161 161 161 160 156 153 153 155 157 157 157 157 157 159 161 160 158 156
297 294 292 291 291 289 285 282 283 284 283 279 277 277 278 280 280 279 278 277 277 279 280 280 281 283 284 282 280 276 272 271 272 272 271 271 269 264 258 254 250 248 246 243 239 235 231 228 225 220 215 209 204 197 191 186 182 179 176 174 172 169 167 166 165 163 160 159 159 159 156 154 152 152 154 155 156 155 155 157 158 158 158 158 158
294 291 290 291 291 289 287 287 289 290 287 285 284 285 285 285 286 285 283 281 279 278 278 278 281 283 283 281 278 275 272 271 271 270 270 271 269 264 258 252 248 246 244 240 235 231 225 220 215 211 208 204 201 196 191 185 180 176 173 171 168 166 163 162 161 161 159 157 156 156 154 152 151 151 152 153 155 155 155 157 157 158 158 159 160
292 291 289 288 287 286 285 287 289 290 291 292 292 292 291 291 289 288 285 283 282 281 280 280 282 284 283 281 277 273 272 272 271 270 268 267 263 257 252 246 241 236 231 225 220 216 212 207 201 196 194 194 195 193 189 184 179 174 170 168 165 163 161 160 160 161 160 157 155 155 155 153 152 151 152 155 156 156 156 158 159 159 159 160 161
290 288 286 286 285 284 286 289 290 292 294 295 295 294 294 292 290 288 287 286 286 286 286 286 286 286 284 280 276 272 271 270 267 265 262 258 252 245 237 227 216 207 199 194 192 193 192 189 185 181 179 179 182 182 180 178 176 173 171 169 166 163 162 162 163 164 164 161 158 157 156 155 153 154 155 157 160 160 160 161 162 163 163 164 165
290 287 286 284 282 282 287 292 293 294 295 295 294 294 294 293 292 293 294 294 295 296 296 296 294 290 286 281 275 269 264 261 259 256 253 245 234 222 209 195 184 177 171 167 169 172 174 174 174 172 168 165 167 170 172 172 172 171 170 169 168 166 165 166 167 168 168 166 163 161 159 157 156 157 158 160 162 162 162 163 165 165 166 167 167
293 291 290 288 287 289 295 300 302 301 301 299 298 298 299 299 300 301 302 303 304 304 304 303 301 297 292 285 276 266 257 252 247 239 229 215 201 188 179 170 163 159 156 156 159 163 164 165 165 164 161 157 157 161 165 168 170 170 170 171 170 169 168 169 169 169 169 168 167 167 164 161 159 159 161 161 162 162 162 164 166 167 168 168 167
298 297 299 301 304 307 311 314 314 312 312 312 311 312 313 316 317 319 321 324 325 324 322 319 316 311 305 298 285 268 250 233 216 197 182 173 167 163 160 156 152 149 147 147 149 153 155 156 156 156 155 154 154 156 159 163 166 166 167 169 169 169 169 169 168 168 168 169 170 170 168 165 162 162 163 163 164 164 164 164 166 167 168 168 167
314 317 322 327 330 331 330 329 328 328 329 330 330 331 334 339 342 346 351 355 358 359 358 355 351 348 346 343 335 308 201 169 155 145 143 142 143 144 144 143 140 139 138 138 138 141 144 146 146 145 144 144 146 147 149 151 153 154 155 158 162 164 165 167 168 168 169 170 171 170 169 167 165 164 164 165 165 165 165 165 165 166 167 167 167
344 351 358 0 360 0 0 360 359 358 357 357 356 357 0 3 6 11 16 18 19 20 19 19 20 21 22 24 31 46 69 88 97 103 110 116 123 129 133 132 129 128 127 126 128 131 134 135 136 136 136 137 138 140 142 144 146 149 151 154 158 161 164 165 167 168 169 170 171 171 170 168 165 164 164 164 165 164 164 164 165 166 166 167 167
11 13 15 15 15 15 15 14 12 10 11 16 22 27 31 32 33 36 39 38 36 34 33 32 34 36 38 40 44 53 63 71 78 86 93 100 108 114 118 119 118 118 119 120 122 125 129 131 133 135 137 138 138 139 141 143 146 149 152 154 156 159 162 163 163 165 168 170 171 171 170 168 166 164 163 163 164 164 164 165 166 166 167 167 168